Date String (YYYY-MM-DD hh:mm:ss) UTC,Instrument flags,absolute air pressure of the measurement (hPa),sample flow rate (lpm),inlet stack bypass flow (lpm),air temperature of the measurement (°C),ambient temperature measured by the external sensor (°C),aerosol sample conditioner tube jacket temperature (°C),OPC LED temperature (°C),internal box temperature (°C),relative humidity of the measurement (%),span deviation,mass concentration of particles derived from Lorenz-Mie calculation of OPC scattering (μg/m³),mass concentration of particles derived from Lorenz-Mie calculation of OPC scattering (μg/m³),mass concentration of particles derived from Lorenz-Mie calculation of OPC scattering (μg/m³)
DateTimeUTC,F1_M11,P_M11,Q1_M11,Q2_M11,T1_M11,T2_M11,T3_M11,T4_M11,T5_M11,U1_M11,ZSPAN_M11,X0_M11,X2_M11,X1_M11
2023-10-18 22:00:00,SystemResetWarning,0831.9,5.01,000.00,028.4,024.2,000.0,036.7,029.9,15.0,0000.0,0012.06,0003.31,0001.91
2023-10-18 22:01:00,SystemResetWarning,0831.9,5.01,000.00,028.3,024.2,000.0,036.7,029.8,15.0,0000.0,0011.99,0003.28,0001.90
2023-10-18 22:02:00,SystemResetWarning,0831.9,5.00,000.00,028.2,024.6,000.0,036.7,029.7,15.0,0000.0,0011.68,0003.31,0001.90
2023-10-18 22:03:00,SystemResetWarning,0831.9,5.00,000.00,028.2,025.0,000.0,036.7,029.7,15.1,0000.0,0011.45,0003.33,0001.88
2023-10-18 22:04:00,SystemResetWarning,0831.9,5.00,000.00,028.2,025.4,000.0,036.7,029.7,15.2,0000.0,0011.01,0003.33,0001.86
2023-10-18 22:05:00,SystemResetWarning,0831.9,4.99,000.00,028.2,025.9,000.0,036.7,029.8,15.1,0000.0,0011.09,0003.37,0001.85
2023-10-18 22:06:00,SystemResetWarning,0831.9,5.00,000.00,028.2,026.2,000.0,036.7,029.9,15.2,0000.0,0011.05,0003.33,0001.85
2023-10-18 22:07:00,SystemResetWarning,0831.9,5.01,000.00,028.2,026.5,000.0,036.7,030.0,15.3,0000.0,0010.63,0003.36,0001.87
2023-10-18 22:08:00,SystemResetWarning,0831.9,5.01,000.00,028.3,026.8,000.0,036.7,030.0,15.1,0000.0,0011.45,0003.36,0001.87
2023-10-18 22:09:00,SystemResetWarning,0831.9,5.00,000.00,028.3,027.0,000.0,036.7,030.1,14.9,0000.0,0011.69,0003.34,0001.87
2023-10-18 22:10:00,SystemResetWarning,0832.0,4.98,000.00,028.4,027.2,000.0,036.7,030.2,14.8,0000.0,0011.12,0003.34,0001.86
2023-10-18 22:11:00,SystemResetWarning,0832.0,5.00,000.00,028.4,027.3,000.0,036.8,030.2,14.8,0000.0,0010.62,0003.36,0001.87
2023-10-18 22:12:00,SystemResetWarning,0832.0,5.01,000.00,028.5,027.5,000.0,036.8,030.3,14.7,0000.0,0011.62,0003.41,0001.88
2023-10-18 22:13:00,SystemResetWarning,0832.0,5.00,000.00,028.5,027.3,000.0,036.8,030.4,14.6,0000.0,0012.26,0003.40,0001.89
2023-10-18 22:14:00,SystemResetWarning,0832.0,4.98,000.00,028.5,025.5,000.0,036.8,030.2,14.6,0000.0,0012.80,0003.31,0001.88
2023-10-18 22:15:00,SystemResetWarning,0832.0,5.02,000.00,028.4,024.2,000.0,036.7,029.9,14.8,0000.0,0012.95,0003.29,0001.88
2023-10-18 22:16:00,SystemResetWarning,0832.0,5.01,000.00,028.3,024.2,000.0,036.7,029.8,14.7,0000.0,0013.23,0003.23,0001.89
2023-10-18 22:17:00,SystemResetWarning,0832.0,5.00,000.00,028.2,024.6,000.0,036.7,029.7,14.7,0000.0,0012.99,0003.21,0001.90
2023-10-18 22:18:00,SystemResetWarning,0832.0,5.00,000.00,028.2,025.0,000.0,036.7,029.7,14.9,0000.0,0013.02,0003.15,0001.87
2023-10-18 22:19:00,SystemResetWarning,0832.0,4.99,000.00,028.2,025.5,000.0,036.7,029.8,14.9,0000.0,0013.02,0003.20,0001.87
2023-10-18 22:20:00,SystemResetWarning,0832.0,5.00,000.00,028.2,025.9,000.0,036.7,029.8,14.8,0000.0,0012.83,0003.25,0001.88
2023-10-18 22:21:00,SystemResetWarning,0832.0,5.00,000.00,028.2,026.2,000.0,036.7,029.9,14.8,0000.0,0013.29,0003.32,0001.91
2023-10-18 22:22:00,SystemResetWarning,0832.0,5.00,000.00,028.2,026.5,000.0,036.7,030.0,14.8,0000.0,0013.41,0003.32,0001.90
2023-10-18 22:23:00,SystemResetWarning,0832.0,5.00,000.00,028.3,026.8,000.0,036.7,030.0,15.0,0000.0,0013.84,0003.32,0001.90
2023-10-18 22:24:00,SystemResetWarning,0832.0,4.99,000.00,028.3,027.0,000.0,036.7,030.1,15.0,0000.0,0013.54,0003.33,0001.89
2023-10-18 22:25:00,SystemResetWarning,0832.1,5.00,000.00,028.4,027.2,000.0,036.7,030.2,14.9,0000.0,0012.41,0003.38,0001.91
2023-10-18 22:26:00,SystemResetWarning,0832.0,5.00,000.00,028.4,027.3,000.0,036.8,030.2,14.9,0000.0,0012.73,0003.42,0001.92
2023-10-18 22:27:00,SystemResetWarning,0832.1,5.00,000.00,028.5,027.4,000.0,036.8,030.3,14.8,0000.0,0012.15,0003.44,0001.91
2023-10-18 22:28:00,SystemResetWarning,0832.1,4.98,000.00,028.5,026.3,000.0,036.8,030.2,15.0,0000.0,0012.97,0003.49,0001.92
2023-10-18 22:29:00,SystemResetWarning,0832.0,5.01,000.00,028.4,024.5,000.0,036.7,029.9,15.1,0000.0,0014.45,0003.53,0001.92
2023-10-18 22:30:00,SystemResetWarning,0832.0,5.02,000.00,028.3,024.1,000.0,036.6,029.8,15.2,0000.0,0015.23,0003.53,0001.94
2023-10-18 22:31:00,SystemResetWarning,0832.1,4.99,000.00,028.2,024.4,000.0,036.6,029.7,15.4,0000.0,0015.08,0003.52,0001.96
2023-10-18 22:32:00,SystemResetWarning,0832.0,5.00,000.00,028.1,024.8,000.0,036.6,029.6,15.4,0000.0,0015.34,0003.49,0001.95
2023-10-18 22:33:00,SystemResetWarning,0832.0,5.01,000.00,028.1,025.3,000.0,036.6,029.7,15.5,0000.0,0014.96,0003.47,0001.95
2023-10-18 22:34:00,SystemResetWarning,0832.0,4.99,000.00,028.1,025.7,000.0,036.6,029.8,15.5,0000.0,0014.67,0003.46,0001.94
2023-10-18 22:35:00,SystemResetWarning,0832.0,5.00,000.00,028.1,026.0,000.0,036.6,029.8,15.4,0000.0,0014.57,0003.48,0001.95
2023-10-18 22:36:00,SystemResetWarning,0832.1,5.00,000.00,028.2,026.4,000.0,036.6,029.9,15.3,0000.0,0015.04,0003.49,0001.94
2023-10-18 22:37:00,SystemResetWarning,0832.1,5.00,000.00,028.2,026.6,000.0,036.7,030.0,15.4,0000.0,0014.90,0003.47,0001.93
2023-10-18 22:38:00,SystemResetWarning,0832.1,5.00,000.00,028.2,026.8,000.0,036.7,030.0,15.5,0000.0,0015.05,0003.44,0001.94
2023-10-18 22:39:00,SystemResetWarning,0832.1,5.00,000.00,028.3,027.0,000.0,036.7,030.1,15.4,0000.0,0014.60,0003.46,0001.94
2023-10-18 22:40:00,SystemResetWarning,0832.1,5.00,000.00,028.3,027.2,000.0,036.7,030.2,15.2,0000.0,0014.49,0003.45,0001.93
2023-10-18 22:41:00,SystemResetWarning,0832.2,5.00,000.00,028.4,027.4,000.0,036.7,030.2,15.2,0000.0,0013.44,0003.43,0001.93
2023-10-18 22:42:00,SystemResetWarning,0832.2,5.00,000.00,028.4,027.4,000.0,036.8,030.3,15.2,0000.0,0013.13,0003.44,0001.93
2023-10-18 22:43:00,SystemResetWarning,0832.2,4.99,000.00,028.4,026.1,000.0,036.7,030.2,15.3,0000.0,0012.81,0003.41,0001.92
2023-10-18 22:44:00,SystemResetWarning,0832.1,5.01,000.00,028.4,025.0,000.0,036.7,030.1,15.3,0000.0,0012.60,0003.43,0001.93
2023-10-18 22:45:00,SystemResetWarning,0832.1,5.01,000.00,028.3,025.0,000.0,036.6,029.9,15.3,0000.0,0012.41,0003.43,0001.94
2023-10-18 22:46:00,SystemResetWarning,0832.1,5.00,000.00,028.2,025.3,000.0,036.7,029.8,15.2,0000.0,0011.45,0003.42,0001.93
2023-10-18 22:47:00,SystemResetWarning,0832.1,5.00,000.00,028.2,025.7,000.0,036.7,029.9,15.5,0000.0,0010.81,0003.41,0001.94
2023-10-18 22:48:00,SystemResetWarning,0832.1,5.00,000.00,028.2,026.0,000.0,036.7,029.9,15.3,0000.0,0011.20,0003.39,0001.94
2023-10-18 22:49:00,SystemResetWarning,0832.1,5.00,000.00,028.3,026.3,000.0,036.7,030.0,15.4,0000.0,0011.00,0003.43,0001.95
2023-10-18 22:50:00,SystemResetWarning,0832.0,5.00,000.00,028.3,026.6,000.0,036.7,030.1,15.3,0000.0,0011.00,0003.41,0001.96
2023-10-18 22:51:00,SystemResetWarning,0832.1,5.00,000.00,028.3,026.9,000.0,036.7,030.1,15.0,0000.0,0011.20,0003.42,0001.98
2023-10-18 22:52:00,SystemResetWarning,0832.1,5.00,000.00,028.4,027.1,000.0,036.8,030.2,15.1,0000.0,0012.40,0003.41,0001.98
2023-10-18 22:53:00,SystemResetWarning,0832.1,5.01,000.00,028.4,027.3,000.0,036.8,030.2,15.1,0000.0,0012.39,0003.42,0001.97
2023-10-18 22:54:00,SystemResetWarning,0832.2,5.00,000.00,028.5,027.1,000.0,036.8,030.3,14.9,0000.0,0012.61,0003.45,0001.98
2023-10-18 22:55:00,SystemResetWarning,0832.2,4.99,000.00,028.5,025.5,000.0,036.8,030.1,15.0,0000.0,0012.90,0003.42,0001.97
2023-10-18 22:56:00,SystemResetWarning,0832.2,5.01,000.00,028.3,024.0,000.0,036.7,029.8,15.2,0000.0,0013.40,0003.42,0001.97
2023-10-18 22:57:00,SystemResetWarning,0832.2,5.02,000.00,028.2,024.0,000.0,036.6,029.7,15.3,0000.0,0013.92,0003.42,0001.97
2023-10-18 22:58:00,SystemResetWarning,0832.1,4.99,000.00,028.1,024.4,000.0,036.6,029.5,15.5,0000.0,0014.09,0003.38,0001.98
2023-10-18 22:59:00,SystemResetWarning,0832.1,5.00,000.00,028.1,024.8,000.0,036.6,029.6,15.6,0000.0,0013.91,0003.38,0001.98
